Daman Airport


Codes: VADN/NMB
Name: Daman Airport
City:
Country: India
Elevation: 33 ft.
Wikipedia:

Photos at Daman Airport


   Photos courtesy of SpottingLog. You can add your own sightings and photos by signing up for a free trial today.



No photos found.

Weather at Daman Airport


Time (UTC)DescriptionTempratureWindCloud coverageVisibilityPressureHumidity
23-May-2024 21:00Clear Sky30°C11 mph, S0%10000m1001hPa79%
24-May-2024 00:00Clear Sky29°C11 mph, S0%10000m1001hPa80%
24-May-2024 03:00Clear Sky31°C13 mph, SW3%10000m1003hPa70%
24-May-2024 06:00Clear Sky32°C16 mph, SW3%10000m1003hPa66%
24-May-2024 09:00Clear Sky33°C13 mph, SW4%10000m1001hPa61%
24-May-2024 12:00Clear Sky31°C18 mph, SW5%10000m1000hPa68%
24-May-2024 15:00Few Clouds30°C18 mph, SW13%10000m1002hPa79%
24-May-2024 18:00Scattered Clouds29°C20 mph, SW38%10000m1003hPa83%
24-May-2024 21:00Scattered Clouds29°C13 mph, SW48%10000m1002hPa81%
25-May-2024 00:00Scattered Clouds29°C16 mph, SW36%10000m1002hPa79%
25-May-2024 03:00Scattered Clouds30°C13 mph, SW36%10000m1004hPa74%
25-May-2024 06:00Broken Clouds31°C13 mph, W53%10000m1005hPa70%
25-May-2024 09:00Few Clouds31°C16 mph, SW13%10000m1002hPa68%
25-May-2024 12:00Clear Sky30°C18 mph, SW7%10000m1001hPa76%
25-May-2024 15:00Clear Sky29°C16 mph, SW1%10000m1003hPa83%
25-May-2024 18:00Clear Sky29°C18 mph, SW8%10000m1004hPa84%
25-May-2024 21:00Broken Clouds29°C18 mph, SW73%10000m1002hPa79%
26-May-2024 00:00Overcast Clouds29°C16 mph, SW86%10000m1002hPa80%
26-May-2024 03:00Overcast Clouds29°C16 mph, SW100%10000m1004hPa75%
26-May-2024 06:00Overcast Clouds31°C16 mph, W91%10000m1005hPa73%
26-May-2024 09:00Overcast Clouds31°C18 mph, SW85%10000m1002hPa72%
26-May-2024 12:00Broken Clouds30°C20 mph, SW80%10000m1002hPa79%
26-May-2024 15:00Overcast Clouds29°C18 mph, SW100%10000m1004hPa82%
26-May-2024 18:00Overcast Clouds29°C16 mph, SW98%10000m1004hPa83%
26-May-2024 21:00Overcast Clouds29°C18 mph, SW98%10000m1002hPa83%
27-May-2024 00:00Light Rain29°C18 mph, SW99%10000m1003hPa81%
27-May-2024 03:00Light Rain29°C16 mph, SW100%10000m1005hPa77%
27-May-2024 06:00Light Rain30°C16 mph, W100%10000m1005hPa77%
27-May-2024 09:00Light Rain31°C18 mph, SW98%10000m1002hPa71%
27-May-2024 12:00Overcast Clouds31°C20 mph, SW94%10000m1001hPa72%
27-May-2024 15:00Overcast Clouds29°C20 mph, SW100%10000m1003hPa81%
27-May-2024 18:00Overcast Clouds29°C20 mph, SW100%10000m1004hPa83%
27-May-2024 21:00Light Rain29°C20 mph, SW100%10000m1003hPa81%
28-May-2024 00:00Light Rain29°C20 mph, SW100%10000m1004hPa79%
28-May-2024 03:00Light Rain29°C18 mph, SW100%10000m1005hPa77%
28-May-2024 06:00Overcast Clouds31°C18 mph, SW100%10000m1005hPa71%
28-May-2024 09:00Overcast Clouds31°C18 mph, SW97%10000m1002hPa69%
28-May-2024 12:00Overcast Clouds30°C18 mph, SW93%10000m1001hPa74%
28-May-2024 15:00Scattered Clouds29°C20 mph, SW44%10000m1003hPa81%
28-May-2024 18:00Light Rain30°C22 mph, SW72%10000m1003hPa67%